Flight Track Log - Related Links

Times and Time Zones

All times are in EDT time to prevent confusion due to time zone crossing. See the SKW5354 flight status page for this flight to view local times or setup timezone preferences in your user account.

Time Position Orientation Groundspeed Altitude Reporting Facility
EDT Latitude Longitude Course Direction KTS MPH feet Rate Location/Type
Wed 05:15:28 PM 42.0333 -87.9333 14° North 197 227 2,500  Level Chicago TRACON
Wed 05:16:28 PM 42.0833 -87.8833 37° Northeast 254 292 4,500 1,982 Climbing Chicago TRACON
Wed 05:17:20 PM 42.1264 -87.8378 38° Northeast 269 310 6,200 2,579 Climbing Chicago Center
Wed 05:18:00 PM 42.4018 -87.7574 20° North  Level FlightAware Approximate
Wed 05:18:22 PM 42.2061 -87.7811 28° Northeast 287 330 9,400  Level Chicago Center
Wed 05:19:00 PM 42.5124 -87.7333 North  Level FlightAware Approximate
Wed 05:19:24 PM 42.2869 -87.7694 North 292 336 11,600  Level Chicago Center
Wed 05:20:00 PM 42.6218 -87.6984 14° North  Level FlightAware Approximate
Wed 05:20:26 PM 42.3725 -87.7567 North 320 368 12,600  Level Chicago Center
Wed 05:21:28 PM 42.4839 -87.7550 North 342 394 14,500 1,403 Climbing Chicago Center
Wed 05:22:30 PM 42.5678 -87.7381 North 356 410 15,500 1,258 Climbing Chicago Center
Wed 05:23:32 PM 42.6781 -87.6936 17° North 364 419 17,100 1,258 Climbing Chicago Center
Wed 05:24:34 PM 42.7775 -87.6547 16° North 369 425 18,100 1,152 Climbing Chicago Center
Wed 05:25:37 PM 42.8464 -87.5486 48° Northeast 396 456 19,500 1,200 Climbing Chicago Center
Wed 05:26:39 PM 42.8839 -87.3764 73° East 406 467 20,600 1,016 Climbing Chicago Center
Wed 05:27:41 PM 42.9153 -87.2389 73° East 410 472 21,600 871 Climbing Chicago Center
Wed 05:28:43 PM 42.9478 -87.0867 74° East 417 480 22,400 774 Climbing Chicago Center
Wed 05:29:45 PM 42.9831 -86.9317 73° East 423 487 23,200 968 Climbing Chicago Center
Wed 05:30:47 PM 43.0225 -86.7458 74° East 426 490 24,400 774 Climbing Chicago Center
Wed 05:31:49 PM 43.0558 -86.5886 74° East 429 494 24,800 484 Climbing Chicago Center
Wed 05:32:51 PM 43.0903 -86.4281 74° East 437 503 25,400 581 Climbing Chicago Center
Wed 05:33:53 PM 43.1247 -86.2664 74° East 440 506 26,000 435 Climbing Chicago Center
Wed 05:34:55 PM 43.1589 -86.0981 74° East 449 517 26,300 -435 Climbing Chicago Center
Wed 05:35:57 PM 43.1928 -85.9275 75° East 452 520 25,100 -1,548 Descending Chicago Center
Wed 05:36:59 PM 43.2228 -85.7686 75° East 430 495 23,100 -1,968 Descending Chicago Center
Wed 05:38:02 PM 43.2528 -85.6136 75° East 420 483 21,000 -2,256 Descending Chicago Center
Wed 05:39:04 PM 43.2881 -85.4311 75° East 413 475 18,400 -2,177 Descending Chicago Center
Wed 05:40:06 PM 43.3158 -85.2786 76° East 412 474 16,500 -1,935 Descending Chicago Center
Wed 05:41:08 PM 43.3442 -85.1300 75° East 406 467 14,400 -2,032 Descending Chicago Center
Wed 05:42:10 PM 43.3708 -84.9894 75° East 387 445 12,300 -1,790 Descending Chicago Center
Wed 05:43:12 PM 43.3950 -84.8531 76° East 371 427 10,700 -1,403 Descending Chicago Center
Wed 05:44:14 PM 43.4161 -84.7394 76° East 313 360 9,400 -1,645 Descending Chicago Center
Wed 05:45:16 PM 43.4306 -84.6089 81° East 291 335 7,300 -1,887 Descending Chicago Center
Wed 05:46:18 PM 43.4392 -84.5028 84° East 285 328 5,500 -1,355 Descending Chicago Center
Wed 05:47:20 PM 43.4458 -84.4117 84° East 280 322 4,500 -1,446 Descending Chicago Center
Wed 05:48:10 PM 43.4503 -84.3208 86° East 262 302 2,800 -2,040 Descending Cleveland Center

Login

Don't have an account? Register now (free) for customized features, flight alerts, and more!